Location: Allen Fire Department Station 4
(33.1073°N, 96.6988°W)
Time: 07:22:01
(UTC+00:00)

Aurora 2 Rocket - Pass Details

Date: 07 July 2022
Orbit: 389 x 1718 km, 25.0° (Epoch: 08 August)

Event Time Altitude Azimuth Distance (km) Brightness Sun altitude
Rises 04:33:20 0° 262° (W) 4,849 7.4 -27.6°
Reaches altitude 10° 04:37:01 10° 257° (WSW) 3,735 6.7 -28.0°
Enters shadow 04:45:11 46° 206° (SSW) 1,701 4.4 -28.8°
